Skip to main content.
NOAA NWS Hourly Roundups by Site

NOAA NWS Hourly Roundups by Site

Regional Weather Roundup for Omaha, NE

To Select Another Site Choose from List

Select Site:  

000
ASUS43 KOAX 100110
RWRNE

WEATHER ROUNDUP FOR NEBRASKA
NATIONAL WEATHER SERVICE OMAHA NE
800 PM CDT SUN AUG 09 2020

NOTES: SATELLITE DATA IS BEING USED TO AUGMENT CLOUD COVER ABOVE
       12000 FEET.
       "FAIR" INDICATES FEW OR NO CLOUDS BELOW 12,000 FEET WITH NO
       SIGNIFICANT WEATHER AND/OR OBSTRUCTIONS TO VISIBILITY.


NEZ001>004-019>022-054>056-100200-
NEBRASKA PANHANDLE

CITY           SKY/WX    TMP DP  RH WIND       PRES   REMARKS
SCOTTSBLUFF    SUNNY     87  52  29 NE20G28   29.95R
ALLIANCE       CLEAR     84  52  33 NE20G28   29.97R
CHADRON        SUNNY     84  45  25 NE17      29.97R
GORDON         FAIR      81  49  32 NE12      29.98S
KIMBALL        MOSUNNY   88  28  11 E10       30.02S
SIDNEY         CLEAR     92  29  10 NE7       29.95F
$$

NEZ057>060-069>072-079>082-100200-
SOUTHWEST NEBRASKA

CITY           SKY/WX    TMP DP  RH WIND       PRES   REMARKS
NORTH PLATTE   PTCLDY    89  73  59 SE7       29.87S HX  97
IMPERIAL       PTCLDY    91  65  41 NE6       29.89S HX  93
LEXINGTON      PTCLDY    91  71  52 SE7       29.86S HAZE    HX  97
MCCOOK         TSTM      83  64  52 S15G24    29.85S
OGALLALA       CLEAR     90  64  42 E6        29.89S HAZE    HX  91
$$

NEZ005>010-023>029-035>040-094-100200-
NORTH CENTRAL NEBRASKA

CITY           SKY/WX    TMP DP  RH WIND       PRES   REMARKS
VALENTINE        N/A     87  62  43 N14       29.91
AINSWORTH      CLEAR     84  69  59 N10       29.90R
BROKEN BOW     CLEAR     89  77  67 CALM      29.87S HX 101
O`NEILL        CLEAR     89  71  56 CALM      29.85R HX  95
ORD            CLEAR     87  78  74 SE7       29.84R HX 100
THEDFORD       PTCLDY    89  68  49 N7        29.92R HX  92
$$

NEZ041-046>049-061>064-073>077-083>087-100200-
SOUTH CENTRAL NEBRASKA

CITY           SKY/WX    TMP DP  RH WIND       PRES   REMARKS
GRAND ISLAND   PTCLDY    88  73  61 SE7       29.85S HX  95
AURORA         PTCLDY    86  77  75 SE5       29.86S HX  96
HASTINGS       PTCLDY    88  71  57 S3        29.88R HX  94
HEBRON         CLEAR     83  73  70 S3        29.85R
HOLDREGE       MOCLDY    87  72  60 E3        29.85S HX  93
KEARNEY        PTCLDY    88  73  61 SE7       29.87S HX  95
YORK           PTCLDY    86  75  70 CALM      29.86R HX  95
$$

NEZ011>018-030>034-042>045-100200-
NORTHEAST NEBRASKA

CITY           SKY/WX    TMP DP  RH WIND       PRES   REMARKS
NORFOLK        CLEAR     85  74  69 S5        29.83R HX  92
ALBION         CLEAR     84  78  81 SE5       29.85S HX  95
BLAIR          CLEAR     84  75  73 S8        29.85R HX  92
COLUMBUS       CLEAR     85  76  74 SE6       29.85R HX  94
FREMONT        PTCLDY    86  79  78 SE5       29.84S HX  99
TEKAMAH        CLEAR     84  74  71 S5        29.83R HX  91
WAYNE          CLEAR     82  76  80 S6        29.84R HX  90
$$

NEZ050>053-065>068-078-088>093-100200-
SOUTHEAST NEBRASKA

CITY           SKY/WX    TMP DP  RH WIND       PRES   REMARKS
LINCOLN        CLEAR     85  72  65 S13       29.85R HX  91
OMAHA EPPLEY   PTCLDY    87  75  67 S10       29.83S HX  96
BEATRICE       CLEAR     85  74  70 S8        29.86R HX  93
FALLS CITY     CLEAR     84  76  76 S6        29.86S HX  93
NEBRASKA CITY  CLEAR     83  79  88 S8        29.86S HX  95
PLATTSMOUTH    CLEAR     83  77  80 CALM      29.86R HX  92
$$

NEZ044-045-051>053-067-100200-
OMAHA AREA

CITY           SKY/WX    TMP DP  RH WIND       PRES   REMARKS
OMAHA EPPLEY   PTCLDY    87  75  67 S10       29.83S HX  96
BLAIR          CLEAR     84  75  73 S8        29.85R HX  92
FREMONT        PTCLDY    86  79  78 SE5       29.84S HX  99
MILLARD        CLEAR     87  75  67 SE6       29.84R HX  96
OFFUTT AFB     CLEAR     84  78  82 SE8       29.84R HX  95
PLATTSMOUTH    CLEAR     83  77  80 CALM      29.86R HX  92
WAHOO          FAIR      85  79  82 SE5       29.84R HX  97
$$



 

View Past Reports for Omaha, NE.

Products Courtesy of NOAA-NWS
NWS Information Parsing Script by Ken True at Saratoga Weather - Script by SE Lincoln Weather.